�������l�o���
Date,Time,MP-1(��Sv/h),MP-2(��Sv/h),MP-3(��Sv/h),MP-4(��Sv/h),MP-5(��Sv/h),MP-6(��Sv/h),MP-7(��Sv/h),MP-8(��Sv/h),����,����(m/s),���J
2017/11/15,00:00,0.924,1.485,0.947,1.766,1.206,0.506,0.919,0.854,�k��,4.2,��
2017/11/15,00:10,0.926,1.483,0.947,1.766,1.209,0.504,0.921,0.854,�k�k��,3.0,��
2017/11/15,00:20,0.923,1.486,0.949,1.766,1.209,0.505,0.919,0.854,�k��,5.9,��
2017/11/15,00:30,0.926,1.483,0.948,1.767,1.208,0.504,0.918,0.855,�k��,5.1,��
2017/11/15,00:40,0.927,1.484,0.948,1.766,1.210,0.504,0.919,0.853,�k��,3.0,��
2017/11/15,00:50,0.927,1.485,0.948,1.764,1.210,0.505,0.919,0.853,���k��,1.5,��
2017/11/15,01:00,0.925,1.483,0.946,1.766,1.207,0.505,0.918,0.854,�k��,1.9,��
2017/11/15,01:10,0.924,1.485,0.947,1.764,1.208,0.505,0.920,0.853,���쐼,2.0,��
2017/11/15,01:20,0.922,1.485,0.948,1.763,1.208,0.505,0.921,0.853,���쐼,1.4,��
2017/11/15,01:30,0.926,1.485,0.946,1.765,1.206,0.505,0.919,0.852,���k��,2.0,��
2017/11/15,01:40,0.925,1.483,0.945,1.764,1.211,0.504,0.921,0.855,��,3.2,��
2017/11/15,01:50,0.925,1.484,0.946,1.766,1.209,0.506,0.921,0.853,���k��,5.1,��
2017/11/15,02:00,0.926,1.484,0.947,1.765,1.209,0.503,0.920,0.853,���k��,5.8,��
2017/11/15,02:10,0.923,1.484,0.947,1.765,1.207,0.505,0.921,0.853,���k��,5.8,��
2017/11/15,02:20,0.925,1.486,0.947,1.766,1.209,0.504,0.921,0.854,���k��,5.9,��
2017/11/15,02:30,0.928,1.486,0.949,1.766,1.209,0.504,0.920,0.852,���k��,6.3,��
2017/11/15,02:40,0.926,1.485,0.949,1.766,1.206,0.503,0.921,0.854,�k��,6.1,��
2017/11/15,02:50,0.926,1.483,0.948,1.767,1.209,0.504,0.921,0.853,�k��,5.9,��
2017/11/15,03:00,0.924,1.484,0.946,1.766,1.206,0.505,0.920,0.855,���k��,6.2,��
2017/11/15,03:10,0.924,1.482,0.946,1.764,1.210,0.505,0.921,0.853,�k��,5.3,��
2017/11/15,03:20,0.925,1.483,0.944,1.767,1.209,0.504,0.919,0.854,�k��,6.8,��
2017/11/15,03:30,0.924,1.483,0.948,1.767,1.210,0.504,0.921,0.854,�k��,5.7,��
2017/11/15,03:40,0.927,1.487,0.945,1.765,1.208,0.504,0.921,0.852,���k��,5.0,��
2017/11/15,03:50,0.924,1.486,0.945,1.765,1.208,0.504,0.920,0.852,���k��,4.9,��
2017/11/15,04:00,0.925,1.485,0.949,1.767,1.208,0.505,0.921,0.853,���k��,4.7,��
2017/11/15,04:10,0.924,1.486,0.947,1.765,1.208,0.506,0.918,0.853,���k��,2.3,��
2017/11/15,04:20,0.923,1.485,0.948,1.764,1.208,0.503,0.921,0.853,��,1.5,��
2017/11/15,04:30,0.926,1.485,0.946,1.766,1.207,0.503,0.921,0.855,��쓌,1.4,��
2017/11/15,04:40,0.923,1.485,0.946,1.765,1.209,0.504,0.921,0.852,�쓌,0.6,��
2017/11/15,04:50,0.924,1.483,0.949,1.766,1.207,0.504,0.922,0.853,�쓌,0.9,��
2017/11/15,05:00,0.923,1.486,0.944,1.763,1.208,0.505,0.919,0.853,-,CALM,��
2017/11/15,05:10,0.925,1.482,0.945,1.765,1.207,0.504,0.918,0.852,��,0.6,��
2017/11/15,05:20,0.925,1.482,0.945,1.762,1.208,0.503,0.919,0.852,�k��,1.1,��
2017/11/15,05:30,0.923,1.485,0.944,1.764,1.208,0.503,0.920,0.852,�k��,1.2,��
2017/11/15,05:40,0.923,1.485,0.944,1.763,1.207,0.505,0.920,0.853,�k�k��,1.5,��
2017/11/15,05:50,0.923,1.485,0.944,1.763,1.208,0.503,0.918,0.855,�k��,3.1,��
2017/11/15,06:00,0.924,1.483,0.944,1.764,1.207,0.503,0.917,0.854,���k��,4.4,��
2017/11/15,06:10,0.923,1.484,0.943,1.765,1.208,0.502,0.919,0.851,���k��,6.1,��
2017/11/15,06:20,0.923,1.483,0.945,1.763,1.208,0.504,0.920,0.852,���k��,6.7,��
2017/11/15,06:30,0.924,1.482,0.946,1.765,1.207,0.501,0.920,0.853,���k��,5.4,��
2017/11/15,06:40,0.923,1.484,0.948,1.766,1.208,0.502,0.920,0.853,���k��,5.4,��
2017/11/15,06:50,0.923,1.483,0.944,1.768,1.209,0.502,0.918,0.852,���k��,5.8,��
2017/11/15,07:00,0.923,1.486,0.945,1.766,1.207,0.503,0.917,0.853,���k��,7.5,��
2017/11/15,07:10,0.926,1.483,0.944,1.764,1.207,0.503,0.920,0.853,���k��,6.4,��
2017/11/15,07:20,0.923,1.487,0.945,1.765,1.207,0.504,0.919,0.854,���k��,5.7,��
2017/11/15,07:30,0.925,1.483,0.945,1.766,1.207,0.503,0.920,0.855,���k��,5.8,��
2017/11/15,07:40,0.923,1.487,0.946,1.764,1.209,0.503,0.919,0.854,�k��,6.1,��
2017/11/15,07:50,0.922,1.485,0.947,1.764,1.205,0.503,0.917,0.853,�k��,7.8,��
2017/11/15,08:00,0.926,1.485,0.947,1.764,1.206,0.502,0.920,0.854,�k��,5.2,��
2017/11/15,08:10,0.924,1.486,0.945,1.767,1.207,0.504,0.918,0.854,�k��,5.3,��
2017/11/15,08:20,0.923,1.483,0.946,1.768,1.207,0.502,0.917,0.854,�k��,4.2,��
2017/11/15,08:30,0.926,1.483,0.945,1.769,1.210,0.503,0.918,0.854,�k��,4.3,��
2017/11/15,08:40,0.926,1.481,0.945,1.764,1.207,0.503,0.917,0.853,�k��,3.8,��
2017/11/15,08:50,0.927,1.486,0.946,1.767,1.209,0.504,0.919,0.854,�k�k��,2.3,��
2017/11/15,09:00,0.926,1.486,0.945,1.769,1.210,0.504,0.919,0.854,�k�k��,2.9,��
2017/11/15,09:10,0.926,1.483,0.946,1.767,1.209,0.504,0.917,0.855,�k,3.8,��
2017/11/15,09:20,0.927,1.484,0.945,1.768,1.211,0.503,0.918,0.855,�k,3.4,��
2017/11/15,09:30,0.926,1.482,0.944,1.767,1.210,0.503,0.920,0.854,�k,2.9,��
2017/11/15,09:40,0.926,1.483,0.944,1.767,1.208,0.502,0.918,0.854,�k,2.3,��
2017/11/15,09:50,0.927,1.484,0.944,1.767,1.210,0.503,0.917,0.854,�k,2.5,��
2017/11/15,10:00,0.928,1.485,0.947,1.767,1.209,0.503,0.918,0.854,�k�k��,2.9,��
2017/11/15,10:10,0.926,1.480,0.946,1.768,1.212,0.504,0.918,0.857,�k,3.2,��
2017/11/15,10:20,0.930,1.479,0.946,1.769,1.211,0.503,0.916,0.855,�k�k��,3.2,��
2017/11/15,10:30,0.928,1.483,0.945,1.768,1.211,0.503,0.916,0.854,�k��,3.3,��
2017/11/15,10:40,0.926,1.484,0.947,1.770,1.208,0.502,0.917,0.857,�k��,3.2,��
2017/11/15,10:50,0.930,1.482,0.944,1.768,1.210,0.504,0.918,0.853,�k��,3.8,��
2017/11/15,11:00,0.927,1.480,0.948,1.768,1.209,0.503,0.918,0.854,���k��,3.7,��
2017/11/15,11:10,0.927,1.483,0.948,1.769,1.210,0.503,0.918,0.855,�k��,3.7,��
2017/11/15,11:20,0.929,1.482,0.948,1.768,1.209,0.504,0.918,0.855,���k��,3.8,��
2017/11/15,11:30,0.929,1.482,0.947,1.769,1.209,0.504,0.918,0.854,���k��,3.9,��
2017/11/15,11:40,0.929,1.485,0.949,1.769,1.209,0.505,0.917,0.855,���k��,4.0,��
2017/11/15,11:50,0.929,1.483,0.945,1.769,1.210,0.504,0.919,0.855,���k��,4.1,��
2017/11/15,12:00,0.927,1.488,0.946,1.770,1.209,0.506,0.917,0.853,��,3.4,��
2017/11/15,12:10,0.927,1.487,0.947,1.771,1.211,0.506,0.919,0.856,���쓌,3.7,��
2017/11/15,12:20,0.928,1.489,0.948,1.770,1.213,0.505,0.917,0.856,���쓌,4.5,��
2017/11/15,12:30,0.927,1.487,0.946,1.771,1.213,0.507,0.917,0.852,��,3.4,��
2017/11/15,12:40,0.927,1.488,0.947,1.770,1.214,0.505,0.918,0.855,���쓌,3.1,��
2017/11/15,12:50,0.927,1.486,0.947,1.770,1.215,0.506,0.919,0.853,���쓌,3.3,��
2017/11/15,13:00,0.926,1.487,0.945,1.770,1.213,0.505,0.918,0.852,�쓌,4.3,��
2017/11/15,13:10,0.927,1.484,0.947,1.776,1.215,0.505,0.915,0.853,�쓌,5.3,��
2017/11/15,13:20,0.929,1.487,0.946,1.770,1.213,0.505,0.920,0.849,���쓌,5.2,��
2017/11/15,13:30,0.928,1.485,0.945,1.771,1.213,0.505,0.919,0.851,�쓌,3.7,��
2017/11/15,13:40,0.927,1.483,0.946,1.771,1.214,0.508,0.918,0.851,�쓌,3.8,��
2017/11/15,13:50,0.927,1.483,0.948,1.770,1.211,0.504,0.918,0.855,�쓌,4.4,��
2017/11/15,14:00,0.929,1.483,0.950,1.771,1.213,0.505,0.918,0.852,�쓌,4.0,��
2017/11/15,14:10,0.928,1.482,0.949,1.770,1.213,0.505,0.919,0.852,�쓌,4.0,��
2017/11/15,14:20,0.931,1.489,0.950,1.772,1.215,0.507,0.918,0.852,�쓌,4.5,��
2017/11/15,14:30,0.930,1.489,0.949,1.771,1.212,0.504,0.918,0.854,��쓌,4.1,��
2017/11/15,14:40,0.928,1.489,0.950,1.771,1.213,0.505,0.919,0.851,��쓌,4.9,��
2017/11/15,14:50,0.928,1.487,0.949,1.772,1.213,0.506,0.918,0.854,��쓌,4.7,��
2017/11/15,15:00,0.927,1.486,0.950,1.773,1.212,0.505,0.917,0.856,��쓌,5.6,��
2017/11/15,15:10,0.930,1.491,0.950,1.773,1.216,0.507,0.919,0.856,��쓌,5.6,��
2017/11/15,15:20,0.928,1.488,0.952,1.773,1.213,0.506,0.919,0.855,��쓌,4.7,��
2017/11/15,15:30,0.930,1.490,0.950,1.770,1.214,0.505,0.919,0.857,��쓌,5.1,��
2017/11/15,15:40,0.928,1.490,0.950,1.773,1.215,0.507,0.918,0.857,��쓌,5.5,��
2017/11/15,15:50,0.932,1.489,0.951,1.770,1.214,0.506,0.919,0.855,��쓌,5.1,��
2017/11/15,16:00,0.930,1.492,0.949,1.770,1.215,0.508,0.919,0.856,��,4.6,��
2017/11/15,16:10,0.931,1.494,0.950,1.772,1.217,0.507,0.919,0.856,��,3.5,��
2017/11/15,16:20,0.931,1.499,0.952,1.772,1.214,0.507,0.919,0.856,��,3.8,��
2017/11/15,16:30,0.932,1.497,0.949,1.770,1.216,0.505,0.920,0.855,��,5.1,��
2017/11/15,16:40,0.931,1.497,0.949,1.771,1.216,0.507,0.922,0.855,��쐼,3.8,��
2017/11/15,16:50,0.929,1.495,0.949,1.774,1.218,0.506,0.921,0.857,�쐼,3.5,��
2017/11/15,17:00,0.931,1.497,0.950,1.772,1.217,0.507,0.918,0.856,�쐼,3.5,��
2017/11/15,17:10,0.928,1.497,0.950,1.769,1.218,0.507,0.922,0.854,�쐼,3.5,��
2017/11/15,17:20,0.929,1.498,0.952,1.772,1.216,0.507,0.919,0.857,�쐼,4.3,��
2017/11/15,17:30,0.930,1.498,0.950,1.771,1.216,0.506,0.920,0.855,�쐼,5.1,��
2017/11/15,17:40,0.929,1.497,0.949,1.770,1.219,0.508,0.920,0.856,���쐼,4.5,�L
2017/11/15,17:50,0.930,1.497,0.952,1.770,1.216,0.506,0.920,0.855,���쐼,3.2,�L
2017/11/15,18:00,0.929,1.496,0.950,1.772,1.217,0.507,0.921,0.857,���쐼,2.9,�L
2017/11/15,18:10,0.930,1.495,0.949,1.769,1.216,0.506,0.920,0.855,��,2.6,�L
2017/11/15,18:20,0.931,1.495,0.949,1.769,1.217,0.507,0.917,0.855,���k��,3.3,�L
2017/11/15,18:30,0.931,1.496,0.953,1.770,1.218,0.507,0.920,0.855,���k��,3.3,�L
2017/11/15,18:40,0.931,1.494,0.950,1.770,1.217,0.507,0.919,0.855,���k��,4.1,�L
2017/11/15,18:50,0.932,1.496,0.950,1.772,1.218,0.507,0.920,0.855,���k��,4.2,�L
2017/11/15,19:00,0.930,1.497,0.950,1.772,1.216,0.507,0.920,0.855,���k��,4.6,�L
2017/11/15,19:10,0.931,1.493,0.950,1.771,1.216,0.506,0.920,0.855,���k��,5.3,�L
2017/11/15,19:20,0.932,1.494,0.949,1.767,1.215,0.507,0.921,0.854,���k��,6.8,�L
2017/11/15,19:30,0.931,1.499,0.950,1.772,1.217,0.507,0.922,0.854,���k��,7.1,��
2017/11/15,19:40,0.931,1.495,0.950,1.772,1.216,0.506,0.920,0.855,���k��,6.2,��
2017/11/15,19:50,0.930,1.494,0.950,1.771,1.216,0.506,0.921,0.855,���k��,4.7,��
2017/11/15,20:00,0.931,1.495,0.950,1.771,1.218,0.507,0.920,0.856,���k��,5.0,��
2017/11/15,20:10,0.931,1.494,0.949,1.769,1.216,0.505,0.919,0.855,�k��,4.3,��
2017/11/15,20:20,0.933,1.496,0.953,1.770,1.216,0.507,0.919,0.855,�k��,4.5,��
2017/11/15,20:30,0.931,1.493,0.950,1.771,1.219,0.506,0.919,0.854,�k��,3.2,��
2017/11/15,20:40,0.928,1.493,0.950,1.771,1.217,0.506,0.919,0.856,�k��,2.5,��
2017/11/15,20:50,0.933,1.495,0.948,1.773,1.215,0.505,0.919,0.856,���k��,3.1,��
2017/11/15,21:00,0.933,1.494,0.951,1.770,1.217,0.505,0.919,0.855,�k��,4.5,��
2017/11/15,21:10,0.933,1.494,0.947,1.767,1.218,0.504,0.922,0.854,���k��,4.7,��
2017/11/15,21:20,0.931,1.494,0.951,1.770,1.219,0.505,0.921,0.856,���k��,3.2,��
2017/11/15,21:30,0.931,1.494,0.949,1.769,1.217,0.504,0.920,0.855,���k��,6.2,��
2017/11/15,21:40,0.933,1.496,0.950,1.772,1.217,0.505,0.920,0.855,���k��,5.9,��
2017/11/15,21:50,0.931,1.493,0.949,1.771,1.216,0.504,0.921,0.858,���k��,8.1,��
2017/11/15,22:00,0.934,1.496,0.949,1.772,1.216,0.505,0.921,0.854,���k��,7.7,��
2017/11/15,22:10,0.933,1.493,0.950,1.769,1.216,0.505,0.920,0.855,���k��,7.4,��
2017/11/15,22:20,0.932,1.495,0.951,1.772,1.219,0.505,0.921,0.856,�k��,4.7,��
2017/11/15,22:30,0.934,1.493,0.949,1.771,1.217,0.505,0.920,0.856,�k�k��,2.8,��
2017/11/15,22:40,0.933,1.494,0.950,1.774,1.216,0.505,0.921,0.855,�k�k��,3.7,��
2017/11/15,22:50,0.933,1.495,0.949,1.771,1.214,0.504,0.919,0.854,�k�k��,4.3,��
2017/11/15,23:00,0.933,1.496,0.949,1.774,1.218,0.505,0.922,0.856,�k��,4.8,��
2017/11/15,23:10,0.931,1.494,0.951,1.770,1.217,0.504,0.921,0.857,�k��,6.3,��
2017/11/15,23:20,0.935,1.495,0.951,1.770,1.214,0.504,0.920,0.854,�k��,8.7,��
2017/11/15,23:30,0.932,1.493,0.952,1.772,1.218,0.505,0.922,0.856,�k��,7.5,��
2017/11/15,23:40,0.934,1.496,0.951,1.772,1.217,0.502,0.920,0.857,�k��,6.8,��
2017/11/15,23:50,0.932,1.496,0.948,1.773,1.216,0.505,0.920,0.855,�k��,5.5,��
